Wind_Speed
42 44 46 47 48 49 52 55 56 56 56 57 57 56 55 56 56 56 55 55 53 52 51 51 50 49 48 47 46 44 43 43 43 42 41 41 39 38 37 37 36 36 35 34
41 43 43 44 45 46 50 52 54 55 55 56 56 57 56 56 57 57 57 56 55 53 53 53 52 51 50 49 47 46 45 44 44 43 43 42 42 41 40 39 38 38 37 37
38 39 40 42 42 44 47 49 50 52 53 54 54 56 56 56 56 56 57 57 56 54 54 54 53 52 51 50 48 47 46 46 45 45 45 44 44 42 41 40 40 39 39 39
35 36 37 39 40 41 44 46 47 49 50 52 53 55 55 54 54 55 55 56 56 55 54 54 53 52 51 50 49 49 48 47 46 46 46 45 45 44 42 42 41 41 40 40
31 32 33 36 37 38 40 42 45 46 48 50 51 52 53 53 54 53 53 54 55 54 54 54 53 52 51 51 50 49 49 48 48 47 47 46 46 45 45 44 43 42 41 41
26 27 29 31 34 36 37 39 42 44 46 50 49 51 52 52 52 51 52 53 53 53 53 53 52 51 51 50 50 49 49 49 48 48 47 47 47 46 46 45 44 43 43 42
22 23 26 28 30 33 35 36 39 42 44 48 47 49 51 49 49 50 51 51 51 52 52 51 52 51 51 51 50 50 50 49 49 49 48 48 47 47 46 46 45 44 43 43
21 20 23 25 27 28 31 34 37 39 43 45 46 47 47 47 47 47 49 50 50 51 51 51 51 51 50 50 50 50 50 50 50 50 49 49 49 48 47 47 46 45 44 43
19 19 21 24 25 26 27 32 33 34 37 39 41 44 45 45 44 45 46 48 48 49 50 50 51 51 50 50 49 50 50 50 50 50 49 49 49 48 48 47 47 46 45 45
18 19 19 22 25 26 26 28 31 32 33 36 39 42 43 43 43 43 44 46 47 48 49 49 50 51 51 50 50 50 50 50 50 50 49 49 49 49 48 48 47 46 46 46
18 18 19 21 23 25 26 27 30 33 33 33 37 40 40 41 41 41 43 44 45 46 48 49 49 50 50 51 50 50 50 50 49 49 49 49 50 49 49 48 48 47 47 46
17 18 19 21 23 23 25 27 28 31 34 35 34 36 38 39 40 40 41 42 43 45 46 47 48 49 50 50 50 50 50 50 49 49 49 49 50 50 49 49 49 48 48 48
15 16 17 18 21 21 23 27 28 29 31 34 34 34 36 37 37 38 40 42 43 44 46 47 47 48 49 49 50 50 50 49 49 49 49 49 50 50 50 49 49 49 49 49
15 15 15 16 17 20 22 24 25 27 31 33 33 33 35 36 36 36 38 41 42 43 44 46 47 47 48 49 49 50 50 50 49 49 49 50 50 50 50 50 50 50 50 49
15 14 14 15 16 18 22 23 23 24 28 31 31 30 31 34 34 34 36 38 40 42 43 44 46 47 48 49 49 49 50 51 50 50 50 50 50 50 50 50 50 50 50 50
14 13 13 14 15 17 20 22 23 24 27 29 30 29 29 31 32 32 33 35 37 39 42 44 45 45 47 48 49 49 49 50 51 51 50 49 49 49 50 50 50 50 50 49
14 13 12 13 15 16 18 20 22 24 26 29 30 30 30 30 31 32 32 33 35 37 39 41 43 44 45 46 47 48 49 49 49 50 51 51 50 50 49 50 50 50 51 50
12 12 12 12 12 14 16 18 21 24 26 29 31 31 30 30 30 31 32 33 34 35 36 38 40 42 44 46 47 47 48 49 49 49 50 50 50 50 50 50 50 51 50 50
12 12 11 11 12 12 14 16 19 22 26 29 29 29 29 30 31 31 31 32 33 34 36 37 38 40 41 43 45 46 46 47 48 49 49 49 50 50 50 50 50 50 50 50
12 11 11 11 12 13 14 15 18 20 23 27 29 29 29 30 30 31 32 32 33 33 34 35 37 38 39 41 42 44 45 46 47 47 48 49 49 49 50 50 50 49 50 50
12 11 11 11 12 12 13 14 17 20 22 25 28 28 29 31 31 30 30 31 32 32 32 33 34 36 38 39 41 42 43 43 44 45 46 47 47 47 48 49 49 49 49 49
13 13 12 12 11 11 12 14 16 17 20 23 25 26 27 29 30 30 29 29 30 31 32 32 33 34 35 37 39 40 41 41 42 42 43 44 44 45 46 46 47 48 48 48
14 13 13 12 12 11 12 12 14 15 17 20 22 24 25 26 28 28 29 29 29 30 31 32 32 32 33 35 36 38 39 40 40 41 41 42 42 43 44 45 46 46 46 46
14 14 14 13 12 11 12 12 13 14 15 17 19 22 24 25 27 27 27 29 30 30 30 31 31 31 31 33 35 36 37 38 39 39 39 40 40 41 41 41 43 44 45 45
15 14 14 13 12 11 11 12 13 13 14 16 18 20 22 25 26 26 26 28 29 29 30 30 31 32 32 33 34 35 36 37 38 39 39 39 39 40 40 40 40 41 42 43
15 15 14 13 12 11 11 11 11 12 14 15 17 19 20 21 23 24 24 26 27 28 29 30 31 31 32 33 34 35 36 37 38 38 38 39 39 40 40 40 40 41 41 41
Wind_Direction
260 258 255 253 251 249 246 243 241 240 239 239 239 238 236 235 235 235 234 234 234 233 233 233 233 233 234 234 235 235 235 234 234 234 235 236 237 238 239 239 240 242 243 244
261 259 257 253 249 246 244 242 241 240 239 239 238 237 235 235 234 234 234 233 233 233 232 232 232 233 233 234 234 235 235 235 234 234 235 236 237 238 239 240 241 242 243 244
264 261 256 250 246 244 242 241 240 240 239 240 239 237 234 234 234 233 232 232 232 232 232 232 232 233 233 234 234 235 235 235 235 235 234 235 236 237 239 240 241 242 243 243
264 260 255 248 245 244 242 240 239 239 239 239 238 237 234 233 233 232 231 231 231 231 231 232 232 232 233 234 234 234 235 235 235 235 235 235 236 237 238 239 241 242 243 244
266 261 254 247 244 243 242 239 238 238 238 238 237 238 235 234 233 232 231 231 231 231 231 231 232 232 232 232 233 233 234 235 235 236 235 236 236 237 238 240 241 242 243 244
268 260 252 246 242 241 240 237 236 237 237 237 236 237 236 234 233 232 231 231 230 230 230 230 230 230 230 231 231 232 233 234 235 235 235 236 236 237 239 240 241 242 243 244
267 257 249 245 242 239 236 234 233 234 234 236 234 236 235 234 232 232 231 230 229 229 228 228 229 229 230 231 231 231 232 233 234 235 235 236 236 238 239 241 242 242 244 245
271 260 248 242 241 240 235 231 233 234 234 234 234 234 233 232 231 231 230 229 229 228 228 228 228 229 229 230 230 231 232 233 233 234 235 236 237 238 239 241 242 243 245 246
273 263 252 243 239 238 235 231 232 234 234 233 232 233 232 231 231 230 230 230 229 229 228 228 228 228 229 230 230 231 232 233 234 234 235 236 237 238 239 241 242 243 245 246
273 265 255 248 242 239 240 235 231 227 227 228 229 230 229 229 230 231 230 230 229 228 229 229 228 228 229 230 231 231 232 233 234 234 235 235 236 237 239 240 242 243 244 246
276 270 258 249 243 241 238 234 231 228 226 226 227 228 228 229 229 230 229 229 229 229 229 230 230 230 230 230 231 232 233 234 235 235 236 236 236 237 238 240 241 242 244 245
280 276 264 254 247 244 239 233 229 227 227 227 228 229 228 229 229 229 228 228 229 229 229 229 229 230 230 231 231 232 233 234 234 235 236 236 237 237 238 240 241 242 243 244
284 279 270 259 250 244 239 232 230 228 228 227 229 229 230 230 230 230 230 228 228 228 228 228 229 229 230 230 231 232 234 235 235 235 236 236 237 238 239 240 241 242 243 244
288 279 272 264 254 242 234 230 228 228 227 226 228 230 229 230 232 233 232 230 229 228 228 228 228 228 229 230 231 232 233 234 235 236 236 237 237 238 239 240 241 242 243 245
293 286 277 266 255 242 231 227 225 224 223 224 224 227 227 229 231 232 233 232 231 231 230 230 230 229 230 230 231 232 233 234 235 236 236 237 237 238 239 240 241 242 243 244
300 292 281 269 258 247 235 226 225 224 222 221 222 225 226 226 228 229 232 233 233 233 233 232 232 231 231 232 232 232 233 235 236 236 236 237 238 239 240 241 242 242 243 244
306 298 288 274 262 251 238 228 225 226 224 222 223 224 225 228 228 230 232 233 231 233 234 233 233 233 234 234 234 234 234 235 236 237 238 238 239 239 240 241 242 243 244 244
313 305 294 284 266 253 242 233 230 227 225 224 224 226 228 228 229 230 232 234 234 233 233 233 234 235 235 235 235 235 235 235 236 237 238 239 240 241 241 242 242 243 244 245
318 311 301 289 271 255 246 241 234 230 229 228 227 227 228 228 230 230 232 234 235 235 234 235 235 236 235 235 236 236 236 236 237 238 238 239 240 241 241 242 242 243 244 245
329 320 306 291 278 267 256 247 240 238 236 232 232 231 230 230 232 231 232 233 235 237 237 237 237 238 237 236 235 236 236 237 237 238 239 240 240 241 242 242 243 244 245 246
324 321 312 298 285 275 263 256 250 248 242 236 235 236 235 234 234 234 234 235 237 237 238 238 239 239 238 237 236 236 236 237 237 238 238 239 240 241 242 242 243 244 245 246
323 322 315 307 293 284 275 267 260 254 246 242 239 239 239 238 237 236 235 235 235 236 237 238 239 239 238 237 237 236 236 236 236 237 237 238 240 241 242 242 243 244 245 246
320 319 316 308 298 288 283 276 267 257 250 247 245 242 241 241 239 239 238 235 235 237 238 239 239 239 238 237 236 236 235 235 235 236 237 239 240 241 242 243 244 244 246 247
320 316 314 309 302 289 283 280 271 264 257 251 246 243 243 244 243 243 241 239 239 239 239 240 240 239 237 236 235 235 235 235 236 236 237 239 239 239 241 243 244 245 245 247
322 315 310 306 300 292 287 281 273 265 258 253 249 247 246 245 244 245 246 243 241 241 241 241 241 240 238 238 236 235 235 235 236 237 238 238 239 239 241 243 244 245 245 247
322 318 311 306 302 298 293 284 274 266 260 255 251 248 246 245 244 245 247 247 245 244 243 243 243 242 240 240 239 238 238 238 238 238 239 240 240 241 243 244 245 246 247 248
Height
5604 5605 5606 5610 5613 5617 5620 5625 5631 5638 5643 5647 5653 5660 5667 5672 5678 5684 5690 5697 5704 5710 5716 5721 5727 5732 5737 5743 5748 5752 5757 5761 5766 5770 5774 5778 5782 5786 5789 5792 5795 5799 5801 5804
5589 5590 5595 5596 5598 5601 5604 5609 5616 5623 5628 5632 5638 5645 5651 5656 5663 5670 5677 5684 5691 5697 5703 5709 5715 5721 5727 5732 5738 5743 5747 5752 5756 5761 5765 5769 5773 5776 5780 5784 5787 5790 5793 5796
5576 5579 5580 5581 5584 5587 5591 5597 5603 5609 5614 5618 5623 5629 5636 5642 5649 5656 5663 5670 5678 5685 5691 5697 5704 5710 5716 5722 5727 5732 5737 5742 5746 5751 5755 5759 5764 5768 5772 5775 5779 5782 5785 5788
5563 5565 5566 5568 5572 5575 5580 5586 5591 5595 5599 5604 5610 5614 5623 5630 5636 5643 5651 5657 5665 5672 5679 5685 5692 5698 5704 5711 5716 5721 5726 5731 5736 5741 5745 5750 5755 5759 5763 5766 5769 5773 5776 5779
5552 5554 5554 5557 5562 5565 5570 5575 5579 5583 5587 5591 5597 5602 5610 5617 5624 5632 5640 5646 5653 5660 5667 5674 5681 5687 5693 5699 5704 5710 5715 5720 5725 5731 5735 5740 5745 5749 5753 5756 5760 5764 5767 5770
5543 5543 5544 5547 5551 5554 5558 5563 5567 5571 5574 5578 5586 5591 5597 5605 5614 5622 5629 5635 5642 5648 5655 5662 5669 5675 5681 5687 5693 5698 5704 5709 5715 5720 5725 5730 5734 5739 5743 5747 5751 5754 5757 5761
5535 5535 5536 5538 5541 5544 5548 5553 5556 5559 5561 5567 5576 5579 5586 5595 5603 5610 5617 5623 5630 5637 5644 5650 5657 5663 5670 5676 5682 5688 5693 5698 5704 5709 5714 5719 5724 5728 5733 5737 5740 5744 5748 5751
5527 5529 5529 5531 5533 5536 5539 5543 5547 5551 5554 5560 5565 5567 5577 5584 5591 5598 5605 5612 5618 5625 5632 5639 5646 5652 5658 5664 5670 5676 5682 5687 5693 5698 5704 5709 5713 5718 5722 5726 5730 5734 5738 5741
5520 5522 5523 5524 5526 5529 5531 5534 5539 5543 5546 5550 5554 5559 5567 5574 5580 5588 5595 5601 5607 5614 5621 5628 5634 5641 5647 5653 5659 5665 5671 5676 5682 5687 5693 5698 5702 5707 5711 5716 5720 5723 5727 5731
5514 5515 5517 5518 5520 5522 5525 5528 5531 5534 5537 5541 5545 5551 5558 5565 5571 5578 5585 5591 5597 5603 5610 5617 5623 5630 5636 5642 5648 5654 5660 5665 5671 5676 5681 5687 5692 5696 5701 5705 5709 5713 5716 5720
5509 5510 5511 5511 5512 5514 5518 5520 5522 5526 5530 5534 5537 5545 5550 5557 5563 5569 5575 5581 5587 5593 5599 5606 5612 5619 5625 5631 5637 5643 5649 5654 5660 5665 5670 5675 5680 5685 5690 5694 5698 5702 5706 5709
5504 5504 5504 5505 5506 5507 5509 5512 5515 5519 5522 5526 5531 5539 5542 5548 5554 5559 5565 5571 5577 5583 5589 5595 5601 5607 5614 5620 5626 5632 5637 5643 5649 5654 5659 5664 5669 5673 5678 5683 5687 5691 5694 5698
5499 5499 5499 5499 5501 5501 5502 5505 5508 5512 5515 5519 5524 5532 5534 5540 5545 5550 5556 5562 5567 5573 5578 5584 5590 5596 5602 5608 5614 5620 5626 5632 5637 5642 5647 5652 5657 5662 5666 5671 5675 5679 5683 5686
5494 5493 5493 5493 5492 5493 5495 5498 5502 5505 5509 5512 5517 5523 5528 5532 5537 5542 5546 5552 5557 5562 5568 5573 5579 5585 5591 5597 5602 5608 5614 5620 5625 5630 5635 5641 5645 5650 5655 5659 5663 5667 5671 5674
5490 5488 5487 5486 5486 5487 5489 5493 5496 5499 5502 5507 5511 5516 5520 5524 5529 5533 5537 5542 5547 5552 5557 5563 5568 5574 5580 5585 5591 5596 5602 5608 5613 5618 5624 5629 5633 5638 5642 5647 5651 5655 5659 5662
5486 5484 5483 5482 5482 5482 5484 5487 5490 5493 5496 5500 5505 5509 5513 5517 5521 5525 5529 5533 5538 5543 5547 5552 5558 5563 5569 5574 5579 5585 5590 5596 5601 5606 5612 5617 5621 5626 5630 5635 5639 5643 5646 5650
5482 5481 5480 5479 5478 5478 5480 5482 5485 5488 5491 5495 5498 5503 5506 5510 5514 5517 5521 5525 5529 5533 5538 5542 5547 5552 5557 5562 5568 5573 5579 5584 5589 5594 5600 5604 5609 5614 5618 5622 5626 5630 5634 5638
5480 5478 5476 5475 5476 5476 5478 5478 5480 5483 5485 5488 5492 5496 5499 5503 5506 5509 5513 5516 5520 5524 5528 5533 5537 5541 5546 5551 5556 5562 5567 5572 5577 5582 5587 5592 5597 5601 5606 5610 5614 5618 5621 5625
5477 5475 5474 5473 5472 5471 5473 5474 5475 5478 5480 5482 5485 5489 5492 5495 5498 5502 5505 5508 5511 5515 5519 5523 5527 5531 5536 5540 5545 5550 5555 5560 5565 5570 5575 5579 5584 5589 5593 5597 5601 5605 5609 5613
5475 5473 5471 5469 5468 5468 5470 5470 5470 5473 5475 5476 5478 5481 5484 5487 5491 5495 5497 5500 5503 5507 5510 5514 5517 5521 5525 5529 5534 5538 5543 5548 5553 5558 5562 5567 5571 5576 5580 5585 5588 5592 5596 5600
5472 5470 5468 5466 5465 5465 5465 5465 5466 5469 5470 5470 5472 5474 5477 5480 5483 5486 5489 5492 5495 5498 5502 5505 5508 5511 5515 5519 5523 5528 5532 5537 5541 5546 5550 5554 5559 5563 5567 5572 5576 5580 5583 5587
5469 5467 5465 5463 5462 5464 5461 5461 5462 5462 5462 5464 5465 5467 5470 5472 5475 5478 5481 5484 5487 5490 5493 5496 5499 5502 5505 5509 5513 5518 5522 5526 5531 5535 5539 5543 5547 5551 5555 5559 5563 5567 5571 5574
5466 5465 5462 5461 5461 5459 5457 5456 5456 5456 5457 5458 5459 5461 5464 5466 5468 5471 5474 5476 5479 5482 5485 5488 5491 5493 5496 5500 5504 5508 5512 5516 5520 5524 5528 5532 5535 5539 5543 5547 5551 5555 5558 5561
5464 5461 5459 5457 5456 5455 5454 5453 5452 5452 5452 5453 5454 5455 5457 5459 5462 5464 5467 5469 5472 5474 5477 5480 5482 5485 5488 5491 5495 5499 5503 5506 5510 5514 5518 5521 5525 5529 5532 5536 5539 5542 5546 5549
5460 5458 5456 5454 5453 5451 5450 5449 5448 5448 5447 5448 5449 5450 5451 5453 5455 5457 5460 5462 5464 5466 5469 5472 5474 5477 5480 5483 5486 5490 5493 5497 5501 5504 5508 5512 5515 5518 5522 5525 5528 5531 5534 5537
5457 5455 5452 5451 5449 5447 5446 5445 5444 5443 5443 5443 5444 5445 5446 5447 5449 5451 5453 5455 5457 5459 5461 5464 5466 5469 5472 5475 5478 5481 5484 5488 5491 5495 5498 5502 5505 5508 5511 5514 5517 5519 5522 5525